EHI
17 18 18 18 15 13 14 13 9 6 7 6 4 2 1 0 0 1 4 7 7 5 3 1 0 1 3 6 7 5 6 9 9 8 9 12 11 12 14 15 12 9 8
14 14 13 14 13 11 11 12 11 9 7 5 3 1 1 1 1 1 2 3 5 5 4 2 1 0 2 4 5 4 4 6 6 8 10 11 10 9 12 13 10 8 8
11 11 10 10 10 10 10 11 11 10 7 4 2 2 3 4 4 2 1 0 2 3 4 4 3 1 2 3 3 3 4 4 4 6 8 8 7 7 8 9 8 7 7
8 9 10 9 7 8 10 11 11 10 6 4 4 5 8 9 6 3 1 1 2 3 4 5 5 3 3 4 4 4 4 4 3 4 5 6 7 8 8 8 7 6 6
5 7 8 8 8 7 8 10 11 10 8 5 4 6 10 11 8 4 2 4 5 5 5 6 5 4 3 3 3 3 3 3 2 2 3 5 7 9 8 5 4 4 5
4 5 6 8 9 9 9 10 10 9 9 7 5 6 9 10 9 7 5 6 7 6 6 6 4 3 1 1 2 2 2 2 1 1 2 4 6 7 5 3 1 2 2
4 4 5 7 8 9 10 9 9 9 9 8 7 7 8 10 9 8 7 6 4 4 4 4 3 2 1 0 1 2 2 2 2 2 2 2 3 4 3 1 1 0 1
3 3 4 6 7 8 8 7 7 8 8 8 8 7 7 8 7 6 5 3 2 2 2 2 2 1 1 0 0 1 1 2 3 3 2 2 2 2 2 2 1 1 1
3 3 4 5 6 6 6 5 5 6 8 8 7 5 5 6 6 5 2 1 1 3 2 1 1 1 1 0 0 0 0 1 2 2 2 2 2 1 1 1 1 1 2
4 3 3 4 4 4 4 4 4 5 7 8 6 4 4 4 4 4 3 3 3 3 3 2 1 1 0 0 0 0 0 0 1 1 1 1 1 1 0 0 0 1 1
5 4 3 3 3 3 3 4 3 4 6 7 6 5 5 5 3 3 4 4 5 4 3 3 2 1 0 0 0 0 0 0 0 0 0 0 0 0 0 0 0 0 0
5 4 3 3 3 3 4 4 3 3 4 6 7 6 5 6 5 4 3 4 5 4 3 3 3 2 1 1 1 0 0 0 0 0 0 0 0 0 0 0 0 0 0
4 4 4 3 3 3 3 2 1 2 4 7 7 6 6 7 7 5 3 3 4 3 2 2 1 1 1 2 2 1 0 0 0 0 0 0 0 0 0 0 0 0 0
3 3 3 3 3 3 2 1 0 1 4 5 6 6 7 8 8 7 5 4 4 3 2 1 0 0 1 2 2 1 0 0 0 0 0 0 0 0 0 0 0 0 0
3 2 3 3 3 3 2 1 0 1 2 3 5 6 7 6 7 8 8 6 4 4 3 1 0 1 1 1 1 0 0 0 0 0 0 0 0 0 0 0 0 0 0
3 3 3 3 3 3 3 2 1 0 1 2 3 4 4 4 6 7 8 7 6 5 4 2 2 1 1 0 0 0 0 0 0 0 0 0 0 0 0 0 0 0 0
4 4 4 4 4 4 4 3 1 0 0 0 1 1 1 2 4 5 6 6 5 5 5 3 3 2 1 0 0 1 0 0 0 0 0 0 0 0 0 0 0 0 0
6 6 6 6 5 5 4 3 1 0 0 0 0 0 0 1 2 3 4 3 2 3 3 3 4 4 2 0 0 0 0 0 0 0 0 0 0 0 0 0 0 0 0
7 7 7 7 6 5 4 3 2 1 1 1 1 0 0 0 1 1 1 0 0 1 1 2 4 5 3 1 0 0 0 0 0 0 0 0 0 0 0 0 0 0 0
7 7 6 6 6 5 4 3 3 3 2 2 2 1 1 0 0 0 0 0 0 0 0 1 4 4 3 1 0 0 0 0 0 0 0 0 0 0 0 0 0 0 0
5 5 4 3 4 4 3 3 3 3 3 3 3 3 2 1 0 0 0 0 0 0 0 1 2 3 2 2 1 1 0 0 0 0 0 0 0 0 0 0 0 0 0
3 2 1 1 2 2 2 1 1 2 3 3 3 3 3 1 0 0 0 0 0 0 0 0 1 1 1 1 1 1 1 0 0 0 0 0 0 0 0 0 0 0 0
1 0 0 0 1 1 1 0 0 1 1 2 3 3 3 2 1 1 1 0 0 0 0 0 0 0 0 1 1 1 2 1 1 1 0 0 0 0 0 0 0 0 0
0 0 0 0 1 1 1 0 0 0 0 1 1 2 3 3 2 2 1 0 0 0 0 0 0 0 0 2 3 3 3 3 2 1 1 0 0 0 0 0 0 0 0
0 0 0 0 1 1 1 0 0 0 0 0 0 1 1 2 1 1 1 0 0 0 0 0 0 0 0 1 2 2 2 3 2 1 1 1 0 0 0 0 0 0 0
0 0 0 0 0 1 0 0 0 0 0 0 0 0 0 1 0 0 0 0 0 0 0 0 0 0 0 0 0 1 1 2 2 1 0 1 0 0 0 0 0 0 0
Wind_Speed
3 3 3 3 4 4 4 5 5 6 7 7 7 8 7 7 7 7 4 7 7 8 8 9 9 9 9 9 9 10 10 10 11 11 11 11 11 11 11 11 11 11 12
2 3 3 3 4 4 4 5 5 5 6 5 7 7 8 7 7 7 6 7 9 8 9 9 10 9 9 9 10 10 10 11 11 11 11 11 11 11 11 11 11 11 11
3 3 3 4 4 4 5 5 5 5 5 6 7 7 7 7 7 7 7 6 7 10 10 9 9 9 9 10 10 10 10 9 10 11 11 12 11 11 11 12 12 12 11
4 4 4 4 4 4 4 4 5 5 5 5 5 6 5 5 7 7 7 6 6 5 9 10 9 9 9 9 10 10 10 9 9 10 11 11 11 11 11 11 11 12 12
4 5 4 3 5 4 4 5 4 5 5 5 5 5 5 5 6 7 7 7 6 6 6 8 10 9 9 9 9 10 10 10 9 10 10 9 9 10 10 11 11 11 11
5 5 4 4 5 4 4 4 5 5 5 5 5 5 5 5 5 5 7 6 6 7 7 6 7 8 10 9 8 9 10 10 9 9 9 9 9 8 9 9 10 10 10
5 5 4 4 5 4 5 5 5 6 5 4 4 4 5 6 5 5 5 5 6 6 6 6 6 5 6 10 8 8 8 9 9 9 9 8 7 7 7 8 8 9 9
5 5 5 4 4 4 5 5 5 5 5 5 5 4 4 5 6 6 5 5 6 5 6 7 6 6 5 5 6 8 7 6 7 9 9 8 7 7 7 8 8 9 9
5 5 5 5 5 5 4 5 6 7 5 5 5 4 4 4 3 5 6 5 5 5 5 5 7 6 7 5 5 7 6 5 7 8 8 7 7 7 8 9 8 8 8
5 5 5 6 6 5 5 6 5 5 6 5 5 5 4 3 4 3 5 5 6 6 5 5 6 6 7 6 4 3 5 5 6 7 7 7 8 8 9 9 9 9 9
5 5 5 5 6 6 5 5 5 6 5 6 5 4 5 5 6 5 4 4 5 5 5 6 5 5 6 6 5 4 4 5 5 7 7 8 8 9 9 9 9 9 9
4 5 5 5 6 6 6 6 6 7 6 6 6 5 5 5 6 6 6 5 5 4 5 4 5 5 5 6 5 4 5 6 6 7 8 8 8 9 9 9 9 9 9
4 4 4 5 5 6 6 6 6 6 7 7 7 5 5 5 5 6 6 5 5 4 5 5 5 5 5 4 4 5 7 8 7 8 9 9 9 9 9 9 9 9 9
4 4 5 5 6 6 6 5 6 6 6 7 8 7 5 5 6 6 6 5 5 5 5 5 4 5 5 4 3 6 6 7 8 8 9 9 9 9 8 8 8 8 9
4 5 5 5 5 5 6 6 5 5 5 7 7 7 7 5 6 6 5 6 6 6 5 5 5 4 4 4 4 6 6 6 8 8 8 8 8 8 8 8 7 7 7
5 5 5 5 5 5 5 5 5 5 5 6 5 6 6 6 5 5 5 5 6 7 6 4 4 4 3 4 4 6 6 6 9 10 9 8 8 8 8 8 7 7 7
5 5 5 5 5 5 5 5 5 6 6 5 6 6 7 7 6 6 6 6 6 6 6 5 4 3 4 5 4 5 6 6 5 10 9 8 8 8 8 8 8 8 8
4 4 5 5 5 5 5 5 6 5 5 5 6 7 8 6 8 7 6 6 6 5 6 6 4 4 5 5 5 6 5 5 5 6 9 9 9 9 9 9 9 8 8
4 4 5 5 5 4 4 5 5 6 6 7 7 7 8 7 8 7 7 7 6 6 6 5 5 4 4 5 5 5 6 5 6 5 9 10 10 10 9 9 9 9 8
4 4 5 4 4 4 4 5 5 6 7 7 7 7 8 8 9 8 7 7 6 6 6 6 5 5 5 5 5 5 5 5 4 4 4 5 8 10 10 10 10 9 8
4 4 4 4 4 4 4 4 5 6 6 7 7 7 7 6 6 7 6 6 7 6 6 5 5 5 4 4 4 4 4 4 3 4 4 4 5 5 6 8 9 9 8
5 4 4 4 4 3 1 2 5 5 5 6 6 6 6 7 7 8 8 8 8 8 7 6 6 5 5 5 4 5 4 4 4 3 4 4 4 4 4 4 5 7 8
5 4 4 4 4 2 1 3 4 5 5 5 5 5 5 5 6 7 8 9 9 10 10 8 7 7 6 5 5 6 5 5 4 3 4 5 4 4 4 3 6 7 7
5 5 5 5 4 3 1 3 5 6 5 5 5 6 6 6 5 6 6 7 7 7 8 9 8 7 6 5 5 6 5 5 5 4 5 5 4 4 4 3 6 8 8
5 5 5 5 5 4 2 4 5 5 4 5 5 5 5 5 3 3 5 6 5 5 5 6 6 6 4 5 6 5 5 5 4 4 3 4 4 4 4 3 4 8 9
6 6 5 5 5 5 3 3 4 4 4 4 4 4 4 4 3 3 5 5 5 5 4 4 5 7 7 6 8 7 6 5 5 4 3 4 4 4 4 3 3 3 5
Wind_Direction
242 241 246 247 243 231 221 230 232 235 240 238 239 235 237 236 239 239 193 175 199 217 225 227 227 231 232 230 227 228 228 227 227 227 226 226 228 229 231 230 227 223 221
248 245 239 245 247 239 236 235 232 231 237 240 240 236 237 234 232 237 237 192 194 210 223 229 231 233 234 233 230 229 230 229 229 228 226 225 227 232 235 230 228 225 223
252 249 250 245 250 246 235 236 228 230 233 233 236 238 236 236 234 233 241 239 210 200 212 224 232 236 237 236 235 232 230 231 231 231 230 229 228 231 234 232 229 226 225
259 255 251 251 247 247 240 236 237 231 232 238 236 237 233 225 232 230 235 235 241 231 205 205 222 231 236 236 236 236 235 234 236 236 236 235 232 232 234 235 233 229 227
260 257 254 256 250 246 244 242 230 235 233 237 234 228 233 228 226 227 231 234 233 239 240 192 202 217 226 233 237 238 240 238 239 238 238 239 236 231 230 232 234 232 230
260 259 249 251 255 248 241 240 238 233 238 235 240 235 236 233 232 230 232 228 228 233 237 235 212 205 210 222 231 237 241 241 240 241 239 238 235 232 229 230 232 232 233
264 262 261 247 252 247 247 241 236 223 226 232 237 238 231 226 227 232 232 237 229 230 231 232 237 231 204 201 213 227 236 239 241 245 243 240 234 231 230 230 232 232 231
266 255 257 249 245 244 239 243 240 238 225 218 230 236 229 215 215 223 225 226 235 232 227 224 228 229 242 220 187 207 228 234 240 248 243 238 236 234 233 234 236 237 234
266 268 257 255 249 245 236 238 233 231 229 219 222 237 244 239 230 209 221 225 227 232 232 227 224 223 232 237 220 192 211 228 242 249 245 240 242 243 241 238 237 236 236
266 260 255 251 251 249 243 237 225 236 233 226 213 230 252 279 247 231 217 215 218 226 232 234 226 220 224 232 223 203 200 220 237 247 249 245 246 247 246 241 238 238 238
262 258 253 251 249 249 244 245 234 241 236 238 229 219 226 235 240 251 241 231 227 223 223 230 235 228 224 230 233 211 187 209 234 244 246 244 244 247 247 243 242 241 242
258 257 255 254 251 248 240 236 233 230 239 241 244 235 229 232 233 238 241 235 235 230 225 229 233 232 229 231 230 195 198 211 228 240 242 240 241 242 243 244 243 243 245
263 261 264 257 254 248 243 237 232 236 235 237 240 239 239 241 246 245 246 244 246 237 223 225 225 230 231 231 215 188 203 206 221 236 240 239 241 241 240 241 245 244 245
273 272 263 258 259 255 246 235 236 232 230 233 238 239 242 241 243 243 244 243 244 239 228 230 223 227 233 234 216 212 219 197 214 229 235 235 237 237 238 241 244 245 245
271 265 264 258 257 256 250 238 236 237 234 235 234 231 239 239 241 245 245 242 245 247 241 227 229 222 230 232 218 235 241 201 211 223 227 227 230 233 235 237 240 243 244
280 274 268 265 259 255 249 240 242 231 235 236 237 239 242 242 241 241 242 243 245 250 252 238 234 233 236 249 223 241 244 209 212 213 217 220 224 229 230 233 237 238 241
280 273 270 266 260 255 247 236 240 235 234 236 238 234 237 243 243 243 241 241 241 243 247 250 243 225 230 248 245 246 245 239 217 195 201 209 215 219 223 230 233 235 237
280 275 275 270 262 258 251 240 238 240 240 240 239 239 238 236 233 237 240 241 242 243 243 245 244 235 233 237 241 244 248 242 243 185 188 201 209 215 220 226 229 231 233
291 286 279 275 270 265 258 246 238 244 244 243 241 242 240 237 238 234 234 238 241 238 235 240 242 238 235 231 236 239 244 244 241 201 190 198 207 214 220 223 226 229 231
296 289 281 278 273 265 260 253 243 242 246 247 244 243 242 239 240 237 232 232 237 239 234 233 237 235 233 226 227 229 236 228 235 232 221 215 206 209 216 218 222 224 226
295 285 277 274 268 257 259 263 254 246 246 249 246 242 245 244 247 246 243 232 230 233 233 231 234 235 234 226 229 241 245 238 232 235 237 233 222 226 219 214 216 214 220
300 283 270 274 272 273 320 289 271 263 256 256 257 252 247 230 230 229 238 239 240 235 236 238 239 238 238 238 242 246 246 243 244 228 245 246 242 242 239 237 202 199 213
304 292 283 279 276 289 286 265 266 264 263 260 258 257 258 253 239 236 220 217 228 235 237 245 247 245 241 240 247 250 250 254 259 244 247 253 247 247 244 231 177 192 206
303 295 292 289 283 290 270 260 266 256 259 256 256 258 260 262 258 251 241 234 234 232 231 231 239 245 245 240 242 251 251 248 246 235 234 257 254 256 252 235 181 190 203
303 298 295 295 292 292 276 259 258 265 256 257 258 261 260 259 266 242 235 238 242 245 237 234 238 241 255 252 249 247 243 244 247 244 243 255 262 264 259 244 198 192 201
299 299 300 296 293 295 297 268 260 265 266 267 264 262 257 253 262 229 233 240 243 251 254 237 225 221 225 225 223 233 243 246 251 256 239 249 257 263 263 250 239 216 212